Regional Weather Roundup
Issued by NWS Midland/Odessa, TX

Current Version | Previous Version | Text Only | Print | Product List | Glossary On
Versions: 1 2 3 4 5 6 7 8 9 10 11 12 13 14 15 16 17 18 19 20 21 22 23 24 25 26 27 28 29 30 31 32 33 34 35 36 37 38 39 40 41 42 43 44 45 46 47 48 49 50
000
ASUS44 KMAF 082110
RWRMAF
MIDLAND AREA WEATHER ROUNDUP
NATIONAL WEATHER SERVICE MIDLAND TX
400 PM CDT SAT AUG 08 2020

...IN SOUTHWEST TEXAS AND SOUTHEAST NEW MEXICO...

CITY           SKY/WX    TMP DP  RH WIND       PRES   REMARKS
ALPINE         SUNNY     94  44  17 SE9G17    30.19F
ANDREWS        FAIR      97  55  24 S9G22     30.07F
ARTESIA        SUNNY     97  54  23 E8        30.06
BIG SPRING     MOSUNNY   96  60  29 S18       30.05F
CARLSBAD       MOSUNNY   98  52  21 SE9G21    30.03F
DRYDEN           N/A     97  61  30 E18       30.04F
FORT STOCKTON  SUNNY     96  54  24 SE14G24   30.04F
GUAD PASS      MOSUNNY   90  50  25 W8        30.23F
HOBBS          SUNNY     95  50  21 SE9G16    30.09F
LAMESA         NOT AVBL
MARFA          SUNNY     91  49  23 SE9       30.19F
MIDLAND AIRPK    N/A     97  57  26 S15G22    30.06F
MIDLAND INTL   SUNNY     96  56  26 SE16G25   30.05F
ODESSA         SUNNY     96  56  26 S12G26    30.07F
PECOS          SUNNY    101  47  16 E9        29.98F
PRESIDIO       FAIR     101  46  15 E12G20    30.02F
SEMINOLE       SUNNY     97  50  20 SE9G18    30.12F
SNYDER         MOSUNNY   96  61  30 S16       30.06F
WINK           SUNNY    101  54  20 S13G23    30.00F
$$
...OTHER STATIONS IN TEXAS...

CITY           SKY/WX    TMP DP  RH WIND       PRES   REMARKS
ABILENE        SUNNY     97  63  32 S14G21    30.04F
AMARILLO       MOSUNNY   98  56  24 S26G33    30.04F
AUSTIN         MOSUNNY   98  66  34 S5G20     30.01F HX 101
BROWNSVILLE    SUNNY     94  75  54 SE13      30.01S HX 105
CORPUS CHRISTI PTSUNNY   92  75  57 SE14G22   30.03F HX 103
DALLAS FTW     MOSUNNY   97  64  33 S14G20    30.02F
DEL RIO        MOSUNNY  102  64  28 SE13G25   29.99F HX 105
EL PASO        MOSUNNY   97  50  20 E5        30.08F
HOUSTON INT    PTSUNNY   92  74  55 SE13      30.06S HX 101
LUBBOCK        MOSUNNY   97  56  25 S18       30.08F
SAN ANGELO     MOSUNNY  100  59  25 S13G20    30.03F HX 100
SAN ANTONIO    MOSUNNY   97  65  34 S7G17     30.04F
WACO           SUNNY     98  63  31 S14G21    30.03F HX 100
WICHITA FALLS  MOSUNNY   98  67  36 S20       29.93F HX 102
$$
...OTHER LOCATIONS IN NEW MEXICO...

CITY           SKY/WX    TMP DP  RH WIND       PRES   REMARKS
ALAMOGORDO     MOSUNNY   95  46  18 W8        30.11
ALBUQUERQUE    MOSUNNY   92  39  15 VRB3      30.16F
CANNON AFB     MOSUNNY   95  49  20 W17       30.10F
CLOVIS         MOSUNNY   94  56  27 SE12G24   30.10F
HOLLOMAN AFB   SUNNY     95  48  19 CALM      30.09F
ROSWELL        MOSUNNY   99  51  19 VRB7      30.05F
RUIDOSO        PTSUNNY   73  48  40 SE18      30.34
SANTA FE       MOSUNNY   92  34  13 SW10G24   30.22F
TRUTH OR CONSE SUNNY     96  43  16 NE10G18   30.14F
TUCUMCARI      SUNNY    100  49  17 S14G23    30.02F
$$



USA.gov is the U.S. government's official web portal to all federal, state and local government web resources and services.